Startseite
Über Mich
AHP4
Galerie
Sehschlangen
Tourenbuch
Bookmarks
Elektronik
Bewertung
Geschichten
[Tagesmessung] [Jahreswerte] [Information]

Messwerte vom 02.10.2022

Die letzten Messwerte von 20:40:46 Uhr:
KategorieMesswert
Temperatur [°C]10
Luftdruck [mBar]1002
Sonneneinstrahlung0
Wind [km/h]7 aus Süd
Niederschlag [l/m²]0
rel.Luftfeucht.96.6%
CO2 [ppm]406

Diagramme
Messwerte vom 02.10.2022
Tagesaggregation
KategorieMinimumMaximumSchnittSumme
Temperatur [°C]92112.7367
Luftdruck [mBar]9941002997.5338
Sonneneinstrahlung246109.2464
Wind [km/h]18
rF [%]72.296.694.35
Niederschlag [l/m²]3.09
CO2 [ppm]401474410.0
Einordnung alsVegetationstag

Messungen an benachbarten Tagen: Zur Jahresaggregation 2022
Tabelle aller Messwerte
UhrzeitTemperatur [°C]Luftdruck [mBar]SonneWind [km/h]RichtungRegen [l/m²]rF [%]CO2 [ppm]
00:01:46 10 994 0 0 SW 0 96.6 474
00:04:44 10 995 0 0 N 0 96.6 466
00:07:47 10 994 0 0 SO 0 96.6 468
00:10:47 10 995 0 1 NW 0 96.6 474
00:13:47 10 995 0 2 S 0 96.6 471
00:16:44 10 995 0 1 W 0 96.6 468
00:19:48 10 995 0 1 SW 0 96.6 462
00:22:46 10 995 0 0 SO 0 96.6 466
00:25:49 10 994 0 0 S 0 96.6 468
00:28:46 10 995 0 0 SO 0 96.6 468
00:31:47 10 995 0 4 SO 0 96.6 469
00:34:46 10 995 0 2 O 0 96.6 465
00:37:46 10 995 0 0 S 0 96.6 465
00:40:46 10 995 0 0 S 0 96.6 468
00:43:46 10 995 0 5 SW 0 96.6 471
00:46:47 10 995 0 0 SO 0 96.6 468
00:49:47 10 995 0 0 SW 0 96.6 471
00:52:48 10 995 0 0 SW 0 96.6 474
00:55:45 10 995 0 3 W 0 96.6 471
00:58:44 10 995 0 1 S 0 96.6 468
01:01:48 10 995 0 0 O 0 96.6 468
01:04:45 10 996 0 1 S 0 96.6 462
01:07:46 10 995 0 6 W 0 96.6 462
01:10:47 10 995 0 2 O 0 96.6 465
01:13:48 10 995 0 1 W 0 96.6 468
01:16:47 10 995 0 0 SO 0 96.6 466
01:19:45 9 995 0 0 S 0 96.6 463
01:22:46 9 996 0 0 W 0 96.6 458
01:25:48 10 995 0 3 SW 0 96.6 460
01:28:50 10 996 0 3 W 0 96.6 407
01:31:47 10 995 0 1 W 0 96.6 404
01:34:46 10 995 0 0 S 0 96.6 407
01:37:46 10 995 0 3 SO 0 96.6 404
01:40:47 10 996 0 2 W 0 96.6 407
01:43:46 10 995 0 4 S 0 96.6 404
01:46:47 10 995 0 2 S 0 96.6 413
01:49:46 10 995 0 2 SW 0 96.6 413
01:52:46 10 995 0 4 SW 0 96.6 416
01:55:46 10 995 0 2 O 0 96.6 409
01:58:47 10 995 0 4 SW 0 96.6 413
02:01:47 10 995 0 1 W 0 96.6 407
02:04:47 10 995 0 3 SW 0 96.6 407
02:07:46 10 996 0 2 W 0 96.6 404
02:10:49 10 996 0 2 S 0 96.6 407
02:13:48 10 995 0 4 W 0 96.6 404
02:16:47 10 995 0 1 S 0 96.6 404
02:19:46 10 995 0 1 W 0 96.6 404
02:22:46 10 996 0 1 SW 0 96.6 404
02:25:47 10 995 0 0 SO 0 96.6 405
02:28:48 10 996 0 2 SW 0 96.6 407
02:31:48 10 996 0 1 NW 0 96.6 405
02:34:47 10 995 0 10 SW 0 96.6 407
02:37:46 10 996 0 4 W 0 96.6 407
02:40:45 10 996 0 1 W 0 96.6 406
02:43:46 10 995 0 3 S 0 96.6 407
02:46:45 10 995 0 2 S 0 96.6 404
02:49:46 10 996 0 1 SO 0 96.6 404
02:52:46 10 996 0 3 NO 0 96.6 407
02:55:45 10 996 0 1 W 0 96.6 407
02:58:47 10 995 0 4 SW 0 96.6 407
03:01:48 10 996 0 3 SW 0 96.6 407
03:04:45 10 996 0 1 S 0 96.6 407
03:07:46 10 996 0 6 S 0 96.6 404
03:10:47 10 995 0 0 N 0 96.6 405
03:13:46 10 996 0 0 S 0 96.6 401
03:16:46 10 996 0 1 W 0 96.6 404
03:19:47 10 996 0 1 SO 0 96.6 404
03:22:46 10 996 0 0 S 0 96.6 407
03:25:47 10 996 0 1 SO 0 96.6 407
03:28:46 10 995 0 2 W 0 96.6 406
03:31:46 10 996 0 4 NO 0 96.6 406
03:34:47 10 996 0 6 SW 0 96.6 407
03:37:46 10 996 0 0 S 0 96.6 404
03:40:47 10 996 0 0 S 0 96.6 407
03:43:45 10 997 0 1 0 96.6 407
03:46:47 10 996 0 4 NW 0 96.6 406
03:49:47 11 997 0 3 SO 0 96.6 407
03:52:46 11 997 0 8 NW 0.2575 96.6 407
03:56:53 10 997 0 18 SO 0.2575 96.6 404
03:58:48 10 996 0 1 SW 0 96.6 406
04:01:44 10 996 0 2 S 0 96.6 407
04:04:45 10 997 0 0 S 0 96.6 401
04:07:48 10 997 0 2 NW 0 96.6 404
04:10:47 10 996 0 3 SW 0.2575 96.6 406
04:13:47 10 996 0 0 NW 0 96.6 401
04:16:46 10 996 0 2 SW 0 96.6 406
04:19:45 10 996 0 4 S 0 96.6 407
04:22:49 10 996 0 1 SO 0 96.6 407
04:25:47 10 996 0 4 SO 0 96.6 406
04:28:47 10 996 0 1 SO 0 96.6 404
04:31:45 10 996 0 1 S 0 96.6 407
04:34:47 10 996 0 1 O 0 96.6 404
04:37:47 10 995 0 3 SO 0 96.6 406
04:40:45 10 996 0 1 SO 0 96.6 404
04:43:47 10 996 0 6 SW 0 96.6 406
04:46:46 10 996 0 0 N 0 96.6 403
04:49:47 10 996 0 1 SW 0 96.6 406
04:52:45 10 996 0 3 S 0 96.6 406
04:55:46 9 996 0 0 O 0 96.6 406
04:58:46 9 996 0 3 S 0 96.6 407
05:01:45 9 996 0 1 N 0 96.6 404
05:04:44 9 996 0 1 S 0 96.6 407
05:07:46 9 996 0 0 SO 0 96.6 407
05:10:46 9 996 0 2 S 0 96.6 404
05:13:48 9 996 0 1 SO 0 96.6 403
05:16:45 9 996 0 2 SW 0.2575 96.6 406
05:19:46 9 996 0 3 NO 0 96.6 407
05:22:44 9 996 0 2 W 0 96.6 405
05:25:48 9 996 0 0 SO 0 96.6 406
05:28:45 9 996 0 0 SO 0 96.6 404
05:31:45 9 997 0 0 S 0 96.6 407
05:34:45 9 997 0 0 SO 0 96.6 406
05:37:46 9 996 0 0 W 0 96.6 407
05:40:47 9 997 0 1 S 0 96.6 404
05:43:45 9 997 0 1 SW 0 96.6 403
05:46:45 9 996 0 0 SW 0 96.6 406
05:49:46 9 996 0 0 S 0 96.6 406
05:52:46 9 996 0 0 O 0 96.6 406
05:55:45 9 996 0 0 W 0 96.6 404
05:58:45 10 996 0 0 W 0 96.6 406
06:01:45 10 997 0 0 S 0 96.6 406
06:04:45 10 996 0 0 SO 0 96.6 404
06:07:47 10 997 0 0 S 0 96.6 407
06:10:45 10 997 0 0 S 0 96.6 404
06:13:46 10 996 0 0 O 0 96.6 407
06:16:46 10 996 0 0 S 0 96.6 404
06:19:48 10 996 0 0 SW 0 96.6 404
06:22:46 10 995 0 2 SO 0 96.6 407
06:25:48 10 998 0 2 SW 0 96.6 404
06:28:45 10 997 0 0 S 0 96.6 407
06:31:48 10 996 0 0 SW 0 96.6 407
06:34:47 10 996 0 5 SO 0 96.6 406
06:37:46 10 997 0 1 S 0 96.6 406
06:40:48 10 997 0 0 SW 0 96.6 407
06:43:45 10 996 0 0 S 0 96.6 406
06:46:44 10 996 0 0 S 0 96.6 407
06:49:48 10 997 0 0 SO 0 96.6 404
06:52:48 10 997 0 0 NW 0 96.6 407
06:55:47 10 997 0 0 O 0 96.6 403
06:58:47 10 996 4 0 S 0 96.6 406
07:01:48 10 997 6 0 SW 0 96.6 407
07:04:46 10 996 10 0 W 0 96.6 407
07:07:50 10 997 13 0 NW 0 96.6 404
07:10:48 10 997 18 0 S 0 96.6 404
07:13:47 10 996 29 0 S 0 96.6 409
07:16:46 10 997 34 0 O 0 96.6 407
07:19:47 10 996 42 0 S 0 96.6 407
07:22:47 10 996 51 0 SO 0 96.6 407
07:25:47 10 997 68 0 W 0 96.6 407
07:28:47 10 996 78 0 SO 0 96.6 406
07:31:48 10 997 92 0 SO 0 96.6 404
07:34:46 10 997 107 0 O 0 96.6 404
07:37:48 10 997 109 0 SW 0 96.6 407
07:40:45 11 996 96 0 S 0 96.6 407
07:43:46 11 997 101 3 SO 0 96.6 404
07:46:49 11 997 129 0 W 0 96.6 403
07:49:48 11 996 138 0 W 0 96.6 406
07:52:49 11 996 163 0 SO 0 96.6 407
07:55:50 11 997 155 0 S 0 96.6 407
07:58:48 11 997 159 2 SO 0 96.6 406
08:01:45 11 997 153 0 O 0 96.6 407
08:04:49 11 997 107 0 SW 0 96.6 407
08:07:46 11 997 79 0 O 0.2575 96.6 407
08:10:46 11 997 61 0 S 0.2575 96.6 407
08:13:49 11 997 75 0 SW 0.515 96.6 404
08:16:50 11 997 102 0 W 0.2575 96.6 407
08:19:49 11 997 122 0 W 0.2575 96.6 407
08:22:50 11 997 152 0 SW 0 96.6 407
08:25:47 11 997 162 0 O 0 96.6 406
08:28:48 11 998 163 0 SW 0 96.6 407
08:31:49 11 997 173 0 SW 0 96.6 404
08:34:47 11 997 170 0 W 0 96.6 407
08:37:48 11 997 163 2 SO 0 96.6 406
08:40:47 11 997 166 6 S 0 96.6 401
08:43:49 11 997 174 0 W 0 96.6 407
08:46:48 11 998 184 0 W 0 96.6 404
08:49:48 11 997 176 12 O 0 96.6 404
08:52:47 11 998 174 1 S 0 96.6 404
08:55:46 11 996 174 2 SW 0 96.6 406
08:58:46 11 997 175 1 S 0 96.6 406
09:01:46 11 998 176 1 O 0 96.6 404
09:04:46 11 997 177 3 NW 0 96.6 406
09:07:46 11 997 183 2 SO 0 96.6 407
09:10:47 11 997 198 1 S 0 96.6 406
09:13:47 11 997 205 0 SW 0 96.6 407
09:16:46 12 998 201 4 W 0 96.6 403
09:19:48 12 997 178 2 S 0 96.6 407
09:22:48 12 997 182 4 SW 0 96.6 407
09:25:47 12 997 186 5 O 0 96.6 406
09:28:48 12 998 186 6 S 0 96.6 407
09:31:48 12 997 183 3 S 0 96.6 406
09:34:50 12 997 196 3 SW 0 96.6 407
09:37:48 12 997 200 3 SW 0 96.6 404
09:40:49 12 997 203 6 W 0 96.6 406
09:43:47 12 997 203 2 W 0 96.6 403
09:46:51 12 998 206 2 S 0 96.6 407
09:49:51 12 998 205 2 SW 0 96.6 401
09:52:47 13 997 195 5 S 0 96.6 404
09:55:49 13 997 181 3 SO 0 96.6 403
09:58:51 12 998 184 3 NW 0 96.6 405
10:01:49 12 998 187 3 SO 0 96.6 407
10:04:49 12 998 194 5 SO 0 96.6 403
10:07:47 12 998 186 4 S 0 96.6 410
10:10:49 12 998 199 5 SO 0 96.6 407
10:13:46 13 997 206 7 S 0 96.6 406
10:16:49 13 998 207 3 SW 0 96.6 406
10:19:46 13 997 199 3 W 0 96.6 407
10:22:47 13 998 207 2 S 0 96.6 406
10:25:47 13 997 211 2 SW 0 96.6 407
10:28:47 13 998 208 5 S 0 96.6 407
10:31:46 13 998 204 1 S 0 96.6 404
10:34:50 13 998 216 4 W 0 96.6 407
10:37:47 14 997 191 2 SW 0 96.6 407
10:40:49 14 998 207 1 NW 0 96.6 407
10:43:48 14 998 203 1 W 0 96.6 404
10:46:47 14 998 183 1 SW 0 96.6 407
10:49:48 14 998 200 2 S 0 96.6 407
10:52:49 14 998 196 3 SO 0 96.6 407
10:55:47 14 998 207 1 S 0 96.6 404
10:58:49 14 998 212 11 S 0 96.6 404
11:01:50 14 998 218 3 NW 0 96.6 407
11:04:50 14 998 219 3 NW 0 96.6 404
11:07:48 14 998 213 2 S 0 96.6 407
11:10:49 14 998 204 1 NO 0 96.6 404
11:13:45 15 998 194 4 SW 0 96.6 405
11:16:47 14 998 203 4 W 0 96.6 404
11:19:46 14 998 206 0 O 0 96.6 407
11:22:47 14 998 182 1 NW 0 96.6 406
11:25:47 14 998 210 0 O 0 96.6 406
11:28:47 14 998 205 1 W 0 96.6 406
11:31:48 14 998 219 3 W 0 96.6 406
11:34:47 15 998 223 4 O 0 96.6 404
11:37:46 15 998 219 3 W 0 96.6 407
11:40:48 15 998 210 10 SW 0 96.6 407
11:43:51 15 998 186 3 NO 0 96.6 406
11:46:47 15 998 192 2 SW 0 96.6 407
11:49:47 15 998 206 4 S 0 96.6 404
11:52:48 14 998 195 0 W 0 96.6 402
11:55:47 14 998 199 3 SO 0 96.6 407
11:58:47 14 998 199 2 NW 0 96.6 406
12:01:50 14 998 199 3 SO 0 96.6 404
12:04:50 15 998 201 3 SO 0 96.6 407
12:07:48 15 998 193 4 SW 0 96.6 407
12:10:48 15 998 210 5 SO 0 96.6 403
12:13:49 15 998 221 0 S 0 96.6 406
12:16:48 16 998 223 4 W 0 96.6 407
12:19:48 16 998 218 6 SW 0 96.5 402
12:22:48 17 998 211 6 W 0 94.4 407
12:25:46 17 998 211 5 W 0 91.5 406
12:28:50 17 998 215 1 NW 0 92 407
12:31:48 17 998 219 2 S 0 91.7 406
12:34:48 18 997 216 2 W 0 90.2 407
12:37:48 18 998 219 5 SO 0 88.3 406
12:40:49 18 998 220 7 SW 0 90.3 407
12:43:51 19 998 217 2 NO 0 85.9 406
12:46:47 18 998 216 0 O 0 86.4 407
12:49:47 18 998 218 3 W 0 86 407
12:52:50 18 998 222 6 NW 0 87.5 408
12:55:48 18 998 222 4 W 0 84.5 403
12:58:50 17 998 223 7 NW 0 84.2 405
13:01:48 18 998 223 2 W 0 87.1 409
13:04:47 18 998 218 3 O 0 87.2 407
13:07:48 18 998 215 4 SW 0 86 407
13:10:48 18 998 216 2 S 0 84 407
13:13:47 18 998 224 2 W 0 83.8 407
13:16:46 19 998 215 1 SW 0 83.2 404
13:19:49 20 998 209 8 W 0 83.1 407
13:22:47 19 998 217 6 W 0 84 403
13:25:49 20 998 208 0 NO 0 82.3 407
13:28:48 20 998 194 2 SW 0 80.2 407
13:31:47 19 998 214 2 N 0 79.2 404
13:34:33 19 998 220 1 NW 0 72.2 407
13:37:50 20 998 216 3 NW 0 79 403
13:40:46 20 998 201 3 S 0 75.3 407
13:43:51 19 998 225 3 NW 0 80.6 407
13:46:50 19 998 223 1 NW 0 80.6 401
13:49:47 19 998 223 3 SW 0 81 407
13:52:50 20 998 224 3 SW 0 82.5 407
13:55:49 20 998 224 3 NW 0 82.4 406
13:58:49 21 998 224 2 W 0 80 404
14:01:48 21 998 225 1 SW 0 79.4 404
14:04:50 21 998 225 14 NW 0 78.2 407
14:07:48 21 998 225 1 W 0 84 404
14:10:47 21 998 227 5 S 0 76.5 407
14:13:46 21 998 231 8 W 0 75.7 407
14:16:48 21 998 234 3 S 0 79.8 404
14:19:47 21 998 234 1 S 0 79.6 404
14:22:50 21 998 223 0 SO 0 80.4 406
14:25:48 21 998 207 2 SW 0 77.1 404
14:28:49 20 998 196 3 SO 0 76.2 407
14:31:47 18 998 183 1 S 0 76.2 406
14:34:47 17 998 189 3 NW 0 78 407
14:37:48 18 999 192 7 NW 0.2575 84 406
14:40:50 17 998 198 4 N 0 89.6 406
14:43:46 14 999 198 2 W 0 90.3 404
14:46:47 14 999 205 1 W 0 93.7 406
14:49:47 14 999 212 2 S 0.2575 94.6 407
14:52:47 14 999 206 1 SO 0 95.9 407
14:55:48 14 999 214 1 SW 0 96.6 404
14:58:49 14 998 233 2 S 0 96.6 407
15:01:46 14 998 236 1 O 0 96.6 403
15:04:51 15 998 240 1 SO 0 96.6 407
15:07:48 15 999 232 2 O 0 96.6 407
15:10:48 15 998 231 0 SO 0 96.6 406
15:13:50 16 998 238 0 SO 0 96.6 407
15:16:48 16 998 229 0 W 0 96.6 407
15:19:50 16 998 236 0 SO 0 96.6 407
15:22:49 17 998 236 0 SO 0 96.6 404
15:25:49 17 999 230 0 SW 0 96.6 404
15:28:47 17 999 242 0 O 0 96.4 407
15:31:47 16 998 243 2 SO 0 95.8 404
15:34:45 17 998 227 0 S 0 96.3 404
15:37:47 16 998 246 0 SO 0 96.4 407
15:40:48 17 999 246 0 NW 0 96.2 407
15:43:48 17 998 245 4 SW 0 96.6 404
15:46:47 17 998 231 0 SO 0 96.4 404
15:49:47 17 998 245 0 W 0 95.4 407
15:52:46 17 998 231 1 W 0 95.8 406
15:55:47 17 999 246 0 O 0 95.2 407
15:58:47 17 998 243 0 SO 0 94.5 404
16:01:51 18 998 241 2 SO 0 91.2 406
16:04:47 18 999 241 1 SO 0 90.7 404
16:07:51 18 998 223 3 SW 0 89.4 406
16:10:49 17 998 221 1 SW 0 89.1 404
16:13:48 17 998 228 0 S 0 89.4 407
16:16:47 17 999 228 0 S 0 90.3 406
16:19:47 17 999 227 2 O 0 91.7 407
16:22:48 17 998 228 2 S 0 92.7 407
16:25:49 17 999 231 5 SO 0 93.1 404
16:28:48 16 998 221 4 SW 0 92.7 406
16:31:48 16 998 214 6 SW 0 91.1 406
16:34:49 16 999 214 2 W 0 90.5 404
16:37:46 16 999 214 1 S 0 91.2 406
16:40:48 16 998 218 0 SO 0 91.2 406
16:43:47 16 999 220 1 W 0 91.7 404
16:46:47 16 998 221 4 W 0 92.3 407
16:49:47 17 998 225 3 S 0 91.7 404
16:52:50 17 998 223 2 SW 0 90.7 404
16:55:46 17 999 204 1 N 0 90.9 404
16:58:47 17 998 217 1 NO 0 90.6 403
17:01:49 16 999 219 2 SW 0 90.5 404
17:04:47 16 999 224 2 N 0 90.6 403
17:07:47 16 998 221 1 O 0 90.3 406
17:10:47 16 999 225 3 SW 0 91 406
17:13:49 16 999 221 7 SW 0 91.3 404
17:16:46 16 999 220 3 W 0 91 406
17:19:48 16 998 217 3 S 0 90.5 407
17:22:47 16 999 210 3 W 0 90.9 404
17:25:47 16 998 189 0 SW 0 90.4 406
17:28:49 16 998 164 5 SO 0 90.9 407
17:31:47 16 999 109 2 S 0 90.8 406
17:34:48 15 999 128 0 NW 0 91.2 404
17:37:48 15 999 141 0 SO 0 92 406
17:40:49 15 999 142 0 SO 0 92.7 406
17:43:47 15 999 132 1 N 0 93.1 406
17:46:47 14 999 133 0 SO 0 93.8 407
17:49:46 14 999 145 0 O 0 94.3 404
17:52:48 14 999 149 0 O 0 94.7 404
17:55:47 14 999 169 3 NW 0 95 406
17:58:49 14 999 187 4 SW 0 95.1 404
18:01:48 14 999 171 3 O 0 94.8 407
18:04:46 14 999 175 1 O 0 94.1 408
18:07:48 14 999 163 2 S 0 92.8 407
18:10:47 14 999 179 2 N 0 92.7 404
18:13:48 14 999 201 0 NW 0 92.5 407
18:16:49 14 999 198 1 SO 0 92.4 407
18:19:48 14 999 181 0 N 0 92.2 407
18:22:49 14 999 173 1 SO 0 91.9 406
18:25:48 13 999 166 1 SO 0 92.2 407
18:28:48 13 1000 160 1 W 0 92.2 406
18:31:50 13 1000 155 0 N 0 92.5 408
18:34:48 13 999 153 0 SO 0 93.3 404
18:37:47 13 1000 147 1 SO 0 93.6 404
18:40:52 12 1000 142 2 SW 0 93.7 407
18:43:50 12 999 132 1 SO 0 94 407
18:46:48 12 1000 112 4 S 0 94.4 401
18:49:49 12 1000 105 2 SO 0 95 407
18:52:48 12 1001 93 0 SO 0 94.9 404
18:55:48 12 1000 81 0 SO 0 95.1 401
18:58:48 12 1000 68 2 S 0 95.1 407
19:01:46 12 1001 55 1 SO 0 95.2 404
19:04:46 12 1001 42 0 S 0 95.2 406
19:07:48 12 1000 30 1 SO 0 95.3 407
19:10:47 12 1001 21 1 SO 0 95.4 407
19:13:47 12 1001 13 1 SO 0 95.7 404
19:16:45 11 1000 7 1 SO 0 95.9 404
19:19:46 11 1001 4 0 W 0 95.9 404
19:22:46 11 1002 0 0 SO 0 96 403
19:25:47 11 1001 0 0 O 0 96.5 404
19:28:46 11 1001 0 0 NO 0 96.6 403
19:31:48 11 1002 0 0 SO 0 96.6 404
19:34:47 11 1001 0 1 SW 0 96.6 406
19:37:47 11 1001 0 0 SO 0 96.6 404
19:40:49 11 1002 0 1 SO 0 96.6 406
19:43:50 11 1002 0 2 SO 0 96.6 404
19:46:48 11 1001 0 3 SO 0 96.6 407
19:49:47 11 1001 0 1 SO 0 96.6 401
19:52:48 11 1001 0 1 SO 0 96.6 407
19:55:50 11 1002 0 0 SO 0 96.6 407
19:58:48 11 1002 0 2 W 0 96.6 406
20:01:48 11 1002 0 0 SW 0 96.6 406
20:04:48 11 1002 0 0 SO 0 96.6 404
20:07:48 10 1001 0 1 S 0 96.6 404
20:10:48 10 1002 0 1 SO 0 96.6 407
20:13:46 10 1002 0 3 W 0 96.6 407
20:16:46 10 1002 0 0 S 0 96.6 404
20:19:48 10 1002 0 0 W 0 96.6 404
20:22:48 10 1002 0 0 O 0 96.6 404
20:25:47 10 1002 0 0 S 0 96.6 404
20:28:46 10 1002 0 3 SW 0 96.6 406
20:31:46 10 1002 0 0 S 0 96.6 406
20:34:47 10 1002 0 0 W 0 96.6 404
20:37:49 10 1002 0 1 SO 0 96.6 407
20:40:46 10 1002 0 7 S 0 96.6 406

Letzte Änderung : 22-Jul-2022
Copyright Jens Köhler, Wolfsburg, Obere Dorfstraße 10d